Total_Precipitation_Accumulation
0.16 0.09 0.09 0.15 0.25 0.37 0.33 0.32 0.28 0.15 0.10 0.23 0.48 0.43 0.65 0.92 1.55 0.69 0.32 0.31 0.28 0.88 0.85 0.56 0.74 0.75 0.48 0.37 0.36 0.35 0.41 0.31 0.22 0.19 0.19 0.27 0.18 0.51 0.57 0.65 0.46 0.54 0.69 0.62 0.46 0.57 0.51 0.08 0.39 0.53 0.42 0.46 0.27 0.62 0.51 0.19 0.26 0.06 0.43 0.06 0.17 0.02 0.03 0.24 0.14 0.16 0.08 0.10 0.01 0.01 0.00 0.00 0.07 0.04 0.02 0.08 0.06 0.03 0.06 0.05 0.09 0.08 0.25 0.12 0.18 0.06 0.65
0.09 0.08 0.08 0.14 0.29 0.36 0.33 0.34 0.30 0.18 0.13 0.67 0.37 0.92 1.16 1.20 0.68 0.55 0.40 0.33 0.49 1.11 0.78 0.63 0.57 0.70 0.82 0.86 0.74 0.42 0.48 0.35 0.26 0.27 0.26 0.54 0.87 0.69 0.77 0.67 0.74 0.50 0.57 0.62 0.37 0.48 0.52 0.13 0.17 0.42 0.41 0.66 0.25 0.44 0.32 0.08 0.19 0.13 0.40 0.31 0.28 0.16 0.19 0.12 0.47 0.21 0.18 0.19 0.09 0.05 0.01 0.08 0.09 0.21 0.08 0.04 0.04 0.05 0.04 0.04 0.10 0.05 0.12 0.20 0.13 0.35 0.52
0.06 0.09 0.08 0.10 0.28 0.38 0.34 0.31 0.37 0.33 0.24 0.36 0.60 0.86 1.76 1.22 0.36 0.29 0.48 0.59 0.64 1.03 0.94 1.14 0.83 0.79 0.98 0.76 0.70 0.77 0.54 0.24 0.33 0.39 0.33 0.16 0.67 0.62 1.40 1.08 0.58 0.47 0.45 0.38 0.33 0.22 0.23 0.54 0.28 0.45 0.52 0.50 0.04 0.04 0.07 0.06 0.15 0.13 0.07 0.12 0.10 0.17 0.45 0.32 0.32 0.29 0.32 0.44 0.41 0.39 0.16 0.07 0.07 0.03 0.05 0.22 0.06 0.08 0.05 0.06 0.08 0.04 0.02 0.03 0.14 0.20 0.50
0.07 0.06 0.06 0.08 0.15 0.28 0.28 0.29 0.29 0.21 0.27 0.53 0.70 0.66 1.35 1.03 0.65 0.52 1.16 0.84 1.46 0.84 0.68 1.00 1.41 0.97 0.90 0.89 0.62 0.66 0.50 0.25 0.09 0.06 0.70 0.18 0.34 0.57 0.76 1.11 0.86 0.61 0.63 0.53 0.32 0.67 0.23 0.23 0.61 0.56 0.36 0.21 0.06 0.06 0.02 0.05 0.18 0.05 0.05 0.13 0.13 0.12 0.13 0.30 0.37 0.30 0.37 0.38 0.47 0.34 0.17 0.14 0.30 0.30 0.19 0.12 0.15 0.11 0.05 0.08 0.11 0.15 0.25 0.21 0.33 0.22 0.63
0.06 0.06 0.06 0.07 0.16 0.21 0.26 0.28 0.36 0.32 0.15 0.27 0.45 0.91 2.14 0.71 0.74 0.62 0.84 0.90 1.09 1.10 0.67 0.99 1.06 1.39 1.21 1.29 0.47 0.52 0.55 0.38 0.73 0.20 1.19 0.16 0.25 0.34 0.54 0.71 1.13 1.31 0.92 0.57 0.64 0.56 0.56 0.16 0.28 0.49 0.43 0.17 0.12 0.01 0.06 0.04 0.02 0.04 0.06 0.06 0.11 0.21 0.13 0.13 0.21 0.19 0.24 0.17 0.11 0.12 0.06 0.08 0.09 0.11 0.15 0.07 0.02 0.05 0.18 0.10 0.14 0.14 0.02 0.24 0.41 0.23 0.25
0.06 0.07 0.07 0.07 0.14 0.17 0.21 0.28 0.36 0.33 0.26 0.12 0.37 0.84 1.36 1.27 0.58 0.88 0.92 1.16 0.92 1.21 0.80 1.04 1.12 0.79 1.17 0.77 0.65 0.43 0.50 0.36 0.71 0.46 0.18 0.50 0.26 0.36 0.23 0.29 0.79 1.05 1.34 1.00 1.04 0.20 0.70 0.60 0.63 0.21 0.34 0.16 0.07 0.05 0.02 0.04 0.03 0.03 0.13 0.09 0.21 0.48 0.27 0.26 0.26 0.32 0.17 0.14 0.18 0.16 0.12 0.03 0.05 0.11 0.06 0.08 0.07 0.12 0.19 0.12 0.08 0.19 0.07 0.33 0.43 0.32 0.21
0.06 0.08 0.08 0.06 0.14 0.13 0.16 0.21 0.30 0.43 0.38 0.22 0.28 1.55 1.20 0.79 0.60 1.01 0.83 1.38 0.75 1.09 1.07 1.00 1.19 1.20 1.08 0.89 0.80 1.17 0.76 0.40 0.25 0.39 0.15 0.38 0.23 0.27 0.40 0.87 1.35 1.82 0.85 0.89 0.65 0.70 0.39 0.48 0.37 0.57 0.20 0.22 0.11 0.17 0.09 0.12 0.06 0.05 0.17 0.09 0.19 0.26 0.41 0.65 0.34 0.52 0.37 0.34 0.36 0.39 0.25 0.15 0.09 0.10 0.11 0.07 0.08 0.21 0.17 0.19 0.07 0.04 0.16 0.08 0.21 0.47 0.14
0.06 0.07 0.09 0.09 0.10 0.10 0.12 0.21 0.24 0.38 0.40 0.48 0.65 0.92 1.30 0.84 1.14 0.95 0.73 1.02 0.80 0.83 0.89 0.82 0.96 1.10 0.84 0.85 0.68 0.89 0.93 1.23 1.43 0.53 0.28 0.47 0.27 0.13 0.51 0.74 1.04 0.70 0.72 0.89 1.46 1.63 1.02 0.59 0.53 0.48 0.23 0.20 0.08 0.10 0.12 0.36 0.11 0.11 0.15 0.12 0.19 0.17 0.87 0.58 0.92 0.74 0.45 0.46 0.39 0.72 0.40 0.28 0.35 0.17 0.13 0.19 0.10 0.25 0.12 0.10 0.06 0.05 0.19 0.22 0.46 0.31 0.20
0.08 0.06 0.10 0.11 0.15 0.11 0.11 0.14 0.17 0.30 0.40 0.71 1.09 1.77 1.17 1.08 1.39 1.46 1.64 0.96 0.97 1.05 0.97 0.78 0.81 0.92 0.77 1.03 0.53 0.45 0.27 0.30 0.33 0.20 0.15 0.22 0.38 0.62 0.46 0.98 1.34 0.25 1.04 1.29 1.26 2.28 1.08 0.36 0.16 0.23 0.17 0.27 0.17 0.15 0.19 0.00 0.20 0.13 0.28 0.10 0.43 0.22 0.69 0.41 0.76 0.60 0.60 0.55 0.61 0.53 0.55 0.24 0.48 0.27 0.17 0.19 0.19 0.11 0.21 0.22 0.13 0.05 0.09 0.19 0.22 0.36 0.26
0.05 0.07 0.07 0.10 0.11 0.13 0.12 0.12 0.11 0.21 0.25 0.59 1.43 1.65 0.96 0.92 0.69 1.01 1.50 1.27 0.64 1.32 1.02 0.75 0.86 0.51 0.55 0.60 0.53 0.73 0.50 0.47 0.23 0.26 0.14 0.42 0.29 0.37 0.45 0.69 0.51 0.77 0.80 1.00 0.63 0.51 0.26 0.08 0.05 0.16 0.12 0.10 0.09 0.04 0.10 0.09 0.06 0.12 0.05 0.07 0.41 0.43 0.37 0.47 0.99 0.60 0.75 0.53 0.38 0.57 0.70 0.43 0.60 0.37 0.26 0.25 0.30 0.26 0.30 0.14 0.08 0.22 0.13 0.04 0.15 0.25 0.11
0.04 0.07 0.05 0.06 0.11 0.07 0.06 0.06 0.05 0.09 0.30 0.78 1.49 1.09 0.89 1.46 1.38 1.10 1.26 1.39 0.84 1.39 1.30 1.07 1.07 0.55 0.90 0.34 0.43 0.33 0.41 0.31 0.21 0.56 0.42 0.29 0.16 0.13 0.18 0.42 0.40 0.30 0.49 0.44 0.47 0.30 0.21 0.09 0.08 0.11 0.10 0.18 0.10 0.03 0.03 0.05 0.03 0.03 0.11 0.14 0.32 0.31 0.40 0.44 0.64 0.65 0.77 0.98 0.78 0.92 0.59 0.70 0.60 0.32 0.21 0.20 0.35 0.33 0.27 0.27 0.29 0.09 0.19 0.36 0.15 0.11 0.14
0.04 0.05 0.04 0.05 0.10 0.09 0.04 0.07 0.06 0.12 0.41 1.17 0.91 0.61 0.57 0.69 0.83 1.03 1.24 1.11 0.85 1.03 1.32 1.29 1.09 0.74 0.78 0.30 0.31 0.36 0.30 0.52 0.17 0.22 0.21 0.23 0.24 0.37 0.24 0.07 0.31 0.12 0.07 0.09 0.29 0.42 0.13 0.16 0.05 0.07 0.16 0.17 0.08 0.11 0.03 0.02 0.05 0.07 0.47 0.12 0.19 0.29 0.33 0.33 0.57 0.42 0.77 0.83 0.78 1.30 0.98 0.44 0.56 0.63 0.13 0.11 0.12 0.16 0.64 0.31 0.24 0.15 0.08 0.42 0.33 0.14 0.09
0.04 0.05 0.03 0.05 0.09 0.08 0.06 0.05 0.06 0.13 0.35 1.18 0.48 0.59 0.44 0.45 0.89 0.98 0.90 1.00 0.73 0.79 0.97 1.15 1.13 0.92 0.56 0.53 0.39 0.22 0.43 0.29 0.18 0.14 0.07 0.20 0.11 0.07 0.09 0.13 0.18 0.13 0.01 0.13 0.11 0.36 0.40 0.51 0.24 0.26 0.18 0.16 0.15 0.06 0.11 0.04 0.04 0.14 0.07 0.88 0.15 0.35 0.20 0.31 0.38 0.53 0.66 0.54 0.94 0.77 0.91 0.83 0.49 0.58 0.48 0.45 0.09 0.56 0.13 0.25 0.27 0.41 0.44 0.31 0.36 0.19 0.16
0.03 0.04 0.02 0.04 0.09 0.08 0.06 0.06 0.08 0.14 0.55 0.30 0.38 0.17 0.22 0.24 0.49 0.60 0.88 0.46 0.31 0.28 0.51 0.71 0.69 0.70 0.68 0.54 0.44 0.26 0.16 0.10 0.20 0.34 0.26 0.09 0.12 0.08 0.04 0.03 0.03 0.01 0.03 0.06 0.19 0.24 0.36 0.34 0.29 0.25 0.32 0.21 0.24 0.22 0.30 0.18 0.22 0.07 0.23 0.13 0.07 0.45 0.31 0.15 0.55 0.36 0.53 0.73 0.74 0.71 1.09 0.57 0.62 0.47 0.42 0.41 0.31 0.17 0.09 0.21 0.25 0.21 0.26 0.29 0.67 0.66 0.33
0.04 0.01 0.03 0.04 0.07 0.09 0.05 0.13 0.11 0.22 0.16 0.07 0.19 0.20 0.11 0.11 0.19 0.42 0.42 0.53 0.27 0.11 0.15 0.45 0.39 0.73 0.83 0.48 0.50 0.33 0.64 0.28 0.28 0.16 0.08 0.06 0.05 0.04 0.12 0.05 0.03 0.04 0.01 0.17 0.26 0.29 0.24 0.13 0.16 0.27 0.36 0.49 0.29 0.31 0.28 0.46 0.19 0.11 0.28 0.23 0.22 0.30 0.32 0.34 0.32 0.72 0.42 0.79 0.93 0.83 0.65 0.89 0.80 0.60 0.53 0.27 0.41 0.38 0.37 0.24 0.30 0.18 0.18 0.18 0.58 0.46 0.54
0.02 0.02 0.02 0.04 0.08 0.07 0.09 0.08 0.19 0.11 0.07 0.02 0.10 0.07 0.07 0.12 0.18 0.11 0.26 0.31 0.39 0.22 0.06 0.13 0.22 0.42 0.62 0.60 0.60 0.38 0.28 0.21 0.30 0.35 0.53 0.14 0.05 0.01 0.01 0.01 0.02 0.01 0.05 0.11 0.17 0.25 0.12 0.16 0.29 0.26 0.44 0.39 0.86 0.32 0.26 0.26 0.31 0.47 0.32 0.47 0.58 0.41 0.40 0.71 0.15 0.54 0.34 0.55 0.92 0.80 0.61 0.92 0.66 0.88 0.62 0.81 0.70 0.63 1.03 0.44 0.67 0.57 0.31 0.23 0.25 0.42 0.61
0.02 0.02 0.02 0.06 0.08 0.10 0.12 0.21 0.10 0.04 0.03 0.21 0.21 0.07 0.09 0.05 0.06 0.07 0.13 0.16 0.48 0.06 0.02 0.03 0.11 0.16 0.31 0.68 0.63 0.42 0.49 0.28 0.33 0.20 0.12 0.08 0.09 0.05 0.01 0.01 0.01 0.03 0.06 0.16 0.21 0.28 0.13 0.17 0.36 0.29 0.71 0.29 0.33 0.21 0.35 0.37 0.45 0.52 0.23 0.24 0.19 0.85 0.89 0.61 0.18 0.33 0.22 0.64 0.78 1.54 0.73 0.70 0.49 0.50 0.58 0.65 0.98 1.01 0.83 0.81 0.84 0.63 0.71 0.68 0.33 0.28 0.43
0.03 0.02 0.04 0.06 0.09 0.11 0.21 0.07 0.06 0.07 0.18 0.09 0.13 0.08 0.03 0.03 0.03 0.08 0.09 0.19 0.15 0.04 0.01 0.00 0.04 0.12 0.10 0.24 0.79 0.55 0.47 0.39 0.37 0.09 0.20 0.09 0.45 0.72 0.16 0.02 0.13 0.01 0.02 0.26 0.11 0.19 0.15 0.23 0.42 0.28 0.40 0.31 0.42 0.26 0.66 0.59 0.15 0.42 0.39 0.45 0.62 0.57 0.43 0.30 0.55 0.53 0.61 0.47 0.53 0.57 0.51 0.27 0.39 0.67 0.70 0.62 0.88 0.75 0.89 0.98 1.10 0.94 1.04 0.83 0.75 0.47 0.22
0.04 0.04 0.06 0.08 0.09 0.13 0.06 0.05 0.04 0.04 0.04 0.05 0.10 0.05 0.04 0.01 0.02 0.04 0.18 0.06 0.21 0.04 0.00 0.00 0.01 0.05 0.02 0.03 0.09 0.16 0.13 0.23 0.34 0.20 0.14 0.18 0.20 0.83 0.13 0.05 0.07 0.38 0.03 0.13 0.22 0.12 0.30 0.33 0.28 0.33 0.29 0.21 0.19 0.53 0.32 0.25 0.41 0.33 0.41 0.51 0.69 0.30 0.31 0.58 0.37 0.47 0.42 0.72 0.43 0.71 0.43 0.42 0.54 0.48 0.41 0.83 0.75 1.15 1.16 1.39 0.94 1.05 0.86 0.49 0.49 0.70 0.49
0.05 0.05 0.07 0.08 0.10 0.07 0.06 0.05 0.06 0.05 0.03 0.03 0.12 0.17 0.01 0.01 0.01 0.01 0.05 0.09 0.05 0.03 0.00 0.00 0.00 0.00 0.00 0.01 0.03 0.16 0.50 0.12 0.18 0.67 0.39 0.26 0.06 0.70 0.06 0.33 0.24 0.12 0.06 0.09 0.09 0.18 0.16 0.15 0.31 0.21 0.26 0.23 0.24 0.17 0.16 0.20 0.13 0.47 0.48 0.44 0.30 0.65 0.36 0.63 0.46 0.51 0.39 0.43 0.42 0.71 0.87 0.81 0.40 0.42 0.47 0.70 1.05 1.30 1.15 1.10 0.96 0.81 0.78 0.84 0.81 0.63 0.54
0.05 0.06 0.07 0.09 0.07 0.06 0.08 0.07 0.08 0.06 0.03 0.03 0.05 0.14 0.02 0.01 0.01 0.01 0.02 0.17 0.25 0.09 0.01 0.00 0.00 0.00 0.00 0.01 0.01 0.00 0.03 0.09 0.04 0.30 0.52 1.34 0.33 0.24 0.36 0.31 0.52 0.44 0.30 0.08 0.31 0.11 0.51 0.25 0.23 0.17 0.36 0.28 0.73 0.20 0.28 0.18 0.13 0.26 0.11 0.34 0.32 0.47 0.45 0.52 0.47 0.49 0.74 0.61 0.40 0.68 0.74 0.76 0.58 0.47 0.96 1.00 0.77 1.12 1.20 1.28 1.16 0.82 0.80 0.79 0.51 0.37 0.37
0.07 0.06 0.06 0.07 0.08 0.09 0.08 0.07 0.09 0.06 0.04 0.06 0.03 0.14 0.06 0.03 0.01 0.02 0.02 0.21 0.24 0.07 0.00 0.00 0.00 0.00 0.00 0.00 0.00 0.00 0.00 0.02 0.03 0.06 0.25 0.53 0.04 0.15 0.11 0.44 0.73 0.38 0.18 0.36 0.12 0.38 0.16 0.13 0.19 0.05 0.23 0.38 0.36 0.35 0.40 0.21 0.23 0.25 0.04 0.18 0.55 0.38 0.49 0.51 0.51 0.62 0.87 0.62 0.57 0.87 0.41 0.43 0.80 0.77 0.75 0.88 0.83 0.79 1.05 1.01 0.99 1.25 1.04 0.40 0.41 0.42 0.40
0.07 0.07 0.08 0.10 0.10 0.10 0.08 0.08 0.08 0.06 0.06 0.04 0.08 0.13 0.09 0.01 0.03 0.02 0.07 0.09 0.05 0.06 0.00 0.00 0.00 0.00 0.00 0.00 0.00 0.00 0.00 0.00 0.04 0.01 0.02 0.17 0.02 0.09 0.12 0.27 0.75 0.27 0.11 0.21 0.33 0.66 0.33 0.18 0.12 0.14 0.15 0.42 0.24 0.27 0.29 0.31 0.48 0.36 0.29 0.33 0.38 0.35 0.22 0.45 0.19 0.41 0.28 0.37 0.63 0.34 0.36 0.28 0.62 0.61 0.76 0.68 0.87 0.79 0.80 0.79 0.96 0.62 0.85 0.77 0.79 0.53 0.38
0.11 0.11 0.12 0.12 0.11 0.12 0.09 0.09 0.07 0.06 0.05 0.04 0.05 0.12 0.06 0.03 0.02 0.03 0.04 0.15 0.14 0.04 0.00 0.01 0.01 0.00 0.00 0.00 0.00 0.00 0.00 0.00 0.00 0.03 0.02 0.00 0.06 0.02 0.11 0.05 0.49 0.31 0.07 0.07 0.07 0.28 0.58 0.34 0.33 0.24 0.25 0.20 0.17 0.40 0.31 0.27 0.23 0.27 0.19 0.25 0.11 0.09 0.22 0.22 0.33 0.26 0.17 0.60 0.41 0.16 0.21 0.22 0.32 0.54 0.60 0.70 0.79 0.75 0.76 0.51 0.60 0.82 0.96 0.89 0.75 0.66 0.46
0.14 0.14 0.14 0.13 0.14 0.11 0.11 0.09 0.08 0.05 0.05 0.04 0.04 0.03 0.03 0.03 0.03 0.09 0.23 0.08 0.01 0.05 0.02 0.01 0.00 0.00 0.00 0.00 0.00 0.00 0.00 0.00 0.00 0.00 0.00 0.00 0.00 0.03 0.05 0.07 0.07 0.28 0.29 0.04 0.02 0.11 0.23 0.20 0.18 0.23 0.15 0.38 0.12 0.54 0.40 0.51 0.36 0.42 0.33 0.23 0.16 0.33 0.07 0.16 0.19 0.13 0.10 0.38 0.38 0.30 0.21 0.60 0.52 0.59 0.59 0.40 0.48 0.74 0.67 0.63 0.68 0.75 1.33 1.28 1.38 0.87 0.70
0.15 0.15 0.15 0.14 0.14 0.12 0.10 0.11 0.07 0.05 0.03 0.03 0.06 0.16 0.11 0.04 0.03 0.03 0.07 0.11 0.16 0.17 0.05 0.00 0.00 0.00 0.00 0.00 0.00 0.00 0.00 0.00 0.00 0.00 0.00 0.00 0.00 0.00 0.00 0.00 0.00 0.00 0.12 0.26 0.04 0.02 0.04 0.05 0.18 0.12 0.11 0.24 0.08 0.29 0.33 0.22 0.20 0.18 0.35 0.18 0.26 0.47 0.08 0.18 0.11 0.15 0.25 0.24 0.34 0.33 0.31 0.27 0.20 0.18 0.33 0.71 0.36 0.33 0.72 0.84 0.97 0.96 1.64 1.25 1.08 1.60 1.54
0.17 0.18 0.16 0.15 0.13 0.12 0.09 0.07 0.06 0.05 0.04 0.04 0.14 0.06 0.06 0.03 0.02 0.04 0.04 0.03 0.09 0.03 0.07 0.02 0.00 0.00 0.00 0.00 0.00 0.00 0.00 0.00 0.00 0.00 0.00 0.00 0.00 0.00 0.00 0.00 0.00 0.00 0.01 0.04 0.06 0.08 0.02 0.04 0.03 0.19 0.09 0.19 0.04 0.15 0.12 0.36 0.21 0.12 0.06 0.28 0.11 0.16 0.26 0.22 0.17 0.18 0.12 0.36 0.44 0.35 0.58 0.42 0.47 0.30 0.33 0.28 0.35 0.38 0.36 0.51 0.58 1.19 0.75 0.63 0.72 0.74 1.07
0.17 0.18 0.15 0.14 0.13 0.11 0.10 0.07 0.08 0.06 0.06 0.06 0.03 0.05 0.03 0.02 0.00 0.00 0.01 0.02 0.07 0.04 0.01 0.01 0.01 0.00 0.00 0.00 0.00 0.00 0.00 0.00 0.00 0.00 0.00 0.00 0.00 0.00 0.00 0.00 0.00 0.00 0.00 0.01 0.04 0.01 0.02 0.03 0.10 0.02 0.09 0.05 0.05 0.08 0.07 0.16 0.04 0.15 0.05 0.40 0.19 0.28 0.36 0.46 0.36 0.34 0.45 0.44 0.34 0.29 0.39 0.49 0.35 0.48 0.31 0.25 0.27 0.40 0.48 0.51 0.45 0.60 0.67 0.59 0.63 0.48 0.65
0.19 0.17 0.17 0.15 0.14 0.12 0.11 0.10 0.08 0.06 0.05 0.04 0.04 0.03 0.01 0.01 0.00 0.01 0.01 0.02 0.03 0.13 0.14 0.06 0.00 0.00 0.01 0.00 0.00 0.00 0.00 0.00 0.00 0.00 0.00 0.00 0.00 0.00 0.00 0.00 0.00 0.00 0.00 0.00 0.00 0.00 0.02 0.01 0.01 0.03 0.05 0.06 0.01 0.09 0.08 0.13 0.13 0.10 0.25 0.30 0.13 0.47 0.13 0.25 0.46 0.20 0.27 0.40 0.34 0.23 0.36 0.29 0.39 0.13 0.19 0.32 0.53 0.53 0.47 0.47 0.84 0.64 0.53 0.66 0.82 0.73 0.72
0.21 0.20 0.18 0.15 0.13 0.12 0.11 0.11 0.08 0.06 0.06 0.10 0.08 0.04 0.02 0.01 0.01 0.02 0.01 0.03 0.04 0.19 0.13 0.03 0.01 0.00 0.00 0.00 0.01 0.00 0.00 0.00 0.00 0.00 0.00 0.00 0.00 0.00 0.00 0.00 0.00 0.00 0.00 0.00 0.00 0.00 0.01 0.00 0.00 0.00 0.00 0.00 0.01 0.03 0.01 0.07 0.16 0.29 0.10 0.08 0.07 0.03 0.62 0.28 0.13 0.11 0.35 0.19 0.07 0.13 0.19 0.21 0.26 0.30 0.28 0.25 0.44 0.49 0.21 0.57 0.45 0.59 0.49 0.64 0.51 0.70 0.42
0.22 0.21 0.19 0.16 0.14 0.13 0.12 0.12 0.11 0.08 0.08 0.13 0.13 0.06 0.02 0.02 0.14 0.01 0.00 0.01 0.04 0.06 0.04 0.03 0.01 0.00 0.00 0.00 0.00 0.00 0.00 0.00 0.00 0.00 0.00 0.00 0.00 0.00 0.00 0.00 0.00 0.00 0.00 0.00 0.00 0.00 0.00 0.00 0.00 0.00 0.00 0.00 0.00 0.02 0.04 0.13 0.13 0.24 0.23 0.06 0.06 0.09 0.11 0.04 0.05 0.12 0.16 0.08 0.14 0.32 0.28 0.19 0.38 0.21 0.28 0.32 0.39 0.40 0.27 0.23 0.50 0.45 0.57 0.49 0.48 0.84 0.52
0.27 0.25 0.20 0.17 0.14 0.15 0.13 0.13 0.13 0.10 0.16 0.12 0.09 0.08 0.05 0.08 0.10 0.01 0.01 0.03 0.07 0.11 0.09 0.04 0.01 0.00 0.00 0.00 0.00 0.00 0.00 0.00 0.00 0.00 0.00 0.00 0.01 0.00 0.00 0.00 0.00 0.00 0.00 0.00 0.00 0.00 0.00 0.00 0.00 0.00 0.00 0.06 0.00 0.00 0.00 0.06 0.02 0.18 0.15 0.03 0.12 0.15 0.14 0.12 0.22 0.36 0.24 0.14 0.08 0.23 0.20 0.27 0.20 0.24 0.21 0.47 0.31 0.09 0.22 0.28 0.25 0.31 0.15 0.47 0.62 0.63 0.77
0.34 0.28 0.22 0.17 0.16 0.15 0.14 0.16 0.13 0.15 0.11 0.07 0.05 0.05 0.03 0.03 0.01 0.01 0.00 0.02 0.05 0.10 0.08 0.08 0.04 0.00 0.00 0.01 0.00 0.00 0.00 0.01 0.00 0.00 0.00 0.00 0.00 0.01 0.01 0.00 0.00 0.00 0.00 0.00 0.00 0.00 0.00 0.00 0.00 0.00 0.00 0.02 0.00 0.00 0.02 0.08 0.11 0.10 0.05 0.04 0.07 0.24 0.13 0.17 0.08 0.41 0.31 0.30 0.14 0.24 0.29 0.16 0.23 0.29 0.29 0.19 0.39 0.20 0.15 0.55 0.31 0.15 0.12 0.19 0.23 0.16 0.25
0.33 0.26 0.22 0.18 0.16 0.16 0.17 0.17 0.16 0.13 0.13 0.11 0.12 0.07 0.03 0.01 0.00 0.01 0.03 0.02 0.05 0.04 0.04 0.03 0.01 0.00 0.00 0.00 0.01 0.02 0.00 0.00 0.00 0.00 0.00 0.00 0.00 0.00 0.00 0.01 0.01 0.00 0.00 0.01 0.00 0.00 0.00 0.00 0.00 0.00 0.00 0.00 0.00 0.02 0.02 0.04 0.04 0.02 0.01 0.02 0.03 0.10 0.22 0.24 0.11 0.32 0.41 0.16 0.19 0.09 0.20 0.10 0.09 0.22 0.21 0.21 0.31 0.11 0.09 0.25 0.26 0.04 0.04 0.20 0.40 0.09 0.18
0.42 0.34 0.24 0.20 0.21 0.20 0.20 0.21 0.18 0.15 0.12 0.09 0.06 0.05 0.02 0.01 0.01 0.00 0.03 0.06 0.08 0.03 0.03 0.02 0.01 0.01 0.00 0.00 0.00 0.00 0.00 0.00 0.01 0.00 0.00 0.00 0.00 0.00 0.01 0.00 0.02 0.00 0.01 0.00 0.00 0.00 0.00 0.00 0.00 0.00 0.00 0.00 0.00 0.00 0.02 0.04 0.01 0.01 0.11 0.10 0.23 0.09 0.06 0.17 0.35 0.26 0.33 0.15 0.13 0.08 0.18 0.08 0.02 0.03 0.07 0.07 0.33 0.12 0.03 0.04 0.04 0.15 0.12 0.13 0.08 0.01 0.07
0.32 0.26 0.23 0.22 0.23 0.22 0.18 0.15 0.10 0.11 0.11 0.11 0.10 0.04 0.03 0.03 0.02 0.03 0.04 0.03 0.02 0.10 0.03 0.03 0.01 0.01 0.00 0.00 0.00 0.00 0.00 0.00 0.00 0.00 0.00 0.00 0.00 0.00 0.00 0.00 0.00 0.01 0.01 0.00 0.02 0.01 0.00 0.04 0.00 0.01 0.00 0.00 0.09 0.13 0.13 0.06 0.05 0.17 0.11 0.13 0.11 0.10 0.31 0.36 0.27 0.21 0.54 0.71 0.26 0.07 0.15 0.08 0.07 0.08 0.03 0.04 0.10 0.07 0.02 0.02 0.02 0.05 0.01 0.02 0.01 0.00 0.01
0.33 0.26 0.26 0.24 0.24 0.19 0.15 0.10 0.11 0.10 0.16 0.08 0.06 0.05 0.04 0.04 0.06 0.05 0.13 0.17 0.13 0.03 0.08 0.03 0.02 0.01 0.01 0.01 0.00 0.00 0.00 0.01 0.00 0.00 0.00 0.00 0.00 0.00 0.00 0.00 0.00 0.00 0.00 0.00 0.00 0.00 0.02 0.00 0.00 0.00 0.00 0.02 0.12 0.04 0.10 0.08 0.14 0.10 0.07 0.24 0.28 0.18 0.12 0.21 0.24 0.04 0.04 0.06 0.12 0.33 0.30 0.13 0.15 0.15 0.17 0.09 0.05 0.12 0.05 0.00 0.00 0.00 0.02 0.07 0.03 0.00 0.00
0.30 0.27 0.23 0.26 0.21 0.16 0.13 0.16 0.18 0.14 0.09 0.07 0.07 0.07 0.07 0.04 0.04 0.07 0.11 0.11 0.09 0.11 0.10 0.12 0.03 0.00 0.00 0.00 0.00 0.01 0.00 0.00 0.00 0.00 0.00 0.00 0.00 0.00 0.00 0.00 0.00 0.00 0.00 0.00 0.01 0.00 0.01 0.00 0.02 0.02 0.10 0.07 0.10 0.03 0.07 0.12 0.05 0.21 0.53 0.25 0.14 0.12 0.09 0.26 0.36 0.09 0.07 0.06 0.10 0.07 0.02 0.02 0.08 0.09 0.03 0.07 0.05 0.05 0.02 0.01 0.01 0.03 0.10 0.05 0.05 0.01 0.01
0.26 0.26 0.25 0.24 0.19 0.16 0.16 0.21 0.14 0.12 0.09 0.09 0.08 0.06 0.06 0.05 0.03 0.04 0.03 0.03 0.06 0.09 0.02 0.02 0.01 0.00 0.01 0.01 0.01 0.00 0.00 0.00 0.00 0.00 0.00 0.03 0.00 0.00 0.00 0.00 0.00 0.00 0.00 0.00 0.00 0.00 0.00 0.00 0.03 0.06 0.13 0.10 0.23 0.15 0.09 0.04 0.05 0.09 0.05 0.07 0.39 0.21 0.07 0.11 0.10 0.09 0.08 0.11 0.11 0.03 0.13 0.04 0.02 0.03 0.03 0.07 0.04 0.05 0.07 0.04 0.54 0.05 0.10 0.02 0.01 0.01 0.01
0.28 0.31 0.26 0.25 0.20 0.20 0.19 0.16 0.12 0.11 0.09 0.09 0.09 0.05 0.05 0.03 0.02 0.02 0.03 0.02 0.01 0.00 0.01 0.02 0.00 0.00 0.00 0.02 0.01 0.03 0.00 0.00 0.00 0.00 0.01 0.00 0.00 0.00 0.00 0.00 0.01 0.00 0.00 0.00 0.00 0.00 0.00 0.00 0.01 0.07 0.06 0.11 0.16 0.07 0.10 0.41 0.20 0.17 0.25 0.46 0.08 0.03 0.06 0.13 0.15 0.09 0.05 0.04 0.04 0.04 0.08 0.08 0.02 0.04 0.05 0.03 0.05 0.03 0.19 0.03 0.01 0.02 0.01 0.02 0.00 0.00 0.01
0.30 0.29 0.30 0.24 0.20 0.19 0.16 0.18 0.14 0.11 0.09 0.08 0.06 0.05 0.03 0.03 0.02 0.01 0.01 0.01 0.00 0.00 0.00 0.00 0.00 0.03 0.02 0.00 0.00 0.01 0.02 0.00 0.02 0.00 0.00 0.00 0.01 0.00 0.00 0.00 0.00 0.00 0.00 0.00 0.02 0.00 0.00 0.00 0.04 0.03 0.10 0.08 0.03 0.08 0.11 0.15 0.16 0.09 0.08 0.02 0.01 0.02 0.02 0.12 0.20 0.12 0.11 0.09 0.08 0.13 0.13 0.15 0.10 0.10 0.15 0.09 0.05 0.02 0.03 0.03 0.03 0.03 0.06 0.02 0.01 0.01 0.00
0.40 0.39 0.27 0.21 0.20 0.18 0.15 0.16 0.15 0.12 0.10 0.06 0.04 0.03 0.02 0.02 0.01 0.01 0.01 0.01 0.00 0.00 0.00 0.01 0.00 0.02 0.11 0.00 0.00 0.00 0.01 0.00 0.00 0.00 0.00 0.00 0.00 0.00 0.00 0.00 0.00 0.00 0.00 0.02 0.00 0.00 0.00 0.00 0.04 0.07 0.13 0.05 0.02 0.03 0.05 0.02 0.13 0.02 0.02 0.01 0.00 0.01 0.03 0.10 0.08 0.08 0.13 0.14 0.14 0.07 0.12 0.03 0.07 0.07 0.04 0.06 0.08 0.03 0.05 0.03 0.03 0.03 0.08 0.05 0.00 0.00 0.01
0.26 0.21 0.19 0.21 0.20 0.16 0.15 0.14 0.11 0.08 0.08 0.04 0.03 0.02 0.01 0.01 0.01 0.01 0.00 0.00 0.00 0.00 0.00 0.00 0.00 0.00 0.00 0.00 0.05 0.01 0.01 0.00 0.00 0.02 0.00 0.00 0.02 0.00 0.00 0.01 0.00 0.00 0.02 0.00 0.00 0.00 0.00 0.01 0.05 0.18 0.10 0.08 0.01 0.03 0.01 0.02 0.02 0.01 0.01 0.00 0.00 0.01 0.03 0.07 0.05 0.02 0.01 0.14 0.10 0.07 0.03 0.02 0.03 0.02 0.04 0.04 0.04 0.06 0.08 0.03 0.05 0.07 0.03 0.06 0.16 0.06 0.01
0.20 0.19 0.21 0.20 0.16 0.16 0.09 0.13 0.07 0.04 0.03 0.01 0.01 0.01 0.00 0.01 0.00 0.00 0.00 0.01 0.00 0.00 0.00 0.00 0.07 0.00 0.04 0.00 0.00 0.01 0.00 0.04 0.01 0.00 0.01 0.02 0.00 0.01 0.02 0.00 0.00 0.04 0.00 0.00 0.00 0.00 0.06 0.17 0.14 0.24 0.09 0.04 0.03 0.02 0.02 0.02 0.01 0.02 0.02 0.02 0.03 0.02 0.01 0.01 0.04 0.14 0.07 0.04 0.04 0.06 0.03 0.03 0.05 0.04 0.04 0.05 0.02 0.04 0.07 0.20 0.35 0.27 0.09 0.10 0.16 0.02 0.01
0.21 0.22 0.18 0.18 0.12 0.12 0.06 0.07 0.05 0.02 0.01 0.01 0.00 0.00 0.00 0.00 0.00 0.00 0.01 0.00 0.00 0.03 0.01 0.00 0.00 0.00 0.00 0.03 0.01 0.05 0.03 0.08 0.20 0.01 0.02 0.01 0.02 0.02 0.03 0.04 0.02 0.01 0.01 0.01 0.04 0.01 0.19 0.28 0.30 0.18 0.15 0.10 0.05 0.03 0.02 0.01 0.01 0.01 0.01 0.01 0.05 0.06 0.03 0.01 0.04 0.02 0.01 0.01 0.01 0.02 0.04 0.03 0.03 0.06 0.04 0.06 0.04 0.04 0.03 0.07 0.14 0.05 0.03 0.02 0.05 0.03 0.02
0.16 0.13 0.12 0.10 0.10 0.09 0.04 0.02 0.01 0.01 0.00 0.00 0.00 0.00 0.00 0.01 0.02 0.01 0.00 0.00 0.01 0.00 0.00 0.01 0.00 0.00 0.01 0.09 0.01 0.17 0.02 0.03 0.09 0.04 0.03 0.10 0.04 0.07 0.02 0.01 0.01 0.02 0.01 0.04 0.02 0.09 0.39 0.45 0.27 0.24 0.15 0.13 0.04 0.04 0.14 0.06 0.06 0.03 0.03 0.04 0.08 0.08 0.09 0.04 0.02 0.06 0.05 0.03 0.02 0.02 0.08 0.13 0.08 0.04 0.04 0.03 0.04 0.06 0.06 0.02 0.04 0.12 0.07 0.04 0.12 0.31 0.20
0.13 0.12 0.08 0.06 0.05 0.03 0.02 0.02 0.01 0.00 0.00 0.00 0.00 0.00 0.00 0.02 0.00 0.00 0.00 0.00 0.00 0.01 0.00 0.00 0.00 0.01 0.01 0.06 0.01 0.03 0.02 0.03 0.01 0.28 0.15 0.12 0.12 0.18 0.10 0.02 0.04 0.02 0.02 0.04 0.12 0.34 0.33 0.34 0.25 0.26 0.14 0.10 0.05 0.02 0.02 0.02 0.02 0.02 0.01 0.02 0.07 0.08 0.07 0.02 0.04 0.03 0.05 0.06 0.10 0.08 0.06 0.06 0.07 0.10 0.03 0.04 0.05 0.02 0.20 0.32 0.11 0.04 0.15 0.22 0.13 0.06 0.04
0.09 0.07 0.06 0.08 0.04 0.02 0.02 0.01 0.00 0.00 0.00 0.00 0.00 0.00 0.00 0.00 0.00 0.01 0.01 0.00 0.00 0.00 0.03 0.01 0.02 0.03 0.01 0.09 0.00 0.04 0.05 0.05 0.03 0.04 0.02 0.08 0.08 0.02 0.08 0.04 0.07 0.20 0.25 0.31 0.39 0.53 0.29 0.25 0.12 0.07 0.04 0.02 0.01 0.02 0.06 0.06 0.01 0.01 0.01 0.03 0.03 0.06 0.06 0.02 0.01 0.01 0.02 0.01 0.05 0.03 0.05 0.07 0.14 0.18 0.11 0.16 0.26 0.51 0.27 0.22 0.21 0.17 0.10 0.07 0.06 0.04 0.02
0.07 0.06 0.05 0.03 0.01 0.01 0.00 0.00 0.00 0.00 0.00 0.00 0.00 0.00 0.00 0.00 0.00 0.01 0.00 0.00 0.00 0.01 0.02 0.01 0.01 0.00 0.00 0.03 0.01 0.02 0.03 0.15 0.05 0.09 0.02 0.11 0.06 0.09 0.11 0.16 0.15 0.21 0.73 0.43 0.62 0.54 0.37 0.30 0.12 0.04 0.03 0.02 0.01 0.01 0.01 0.01 0.00 0.00 0.01 0.04 0.07 0.09 0.06 0.04 0.02 0.02 0.03 0.06 0.05 0.04 0.07 0.07 0.06 0.06 0.06 0.06 0.05 0.04 0.11 0.05 0.06 0.04 0.03 0.08 0.12 0.09 0.09
0.07 0.05 0.03 0.02 0.01 0.00 0.00 0.00 0.00 0.00 0.00 0.00 0.00 0.00 0.00 0.00 0.01 0.00 0.00 0.00 0.00 0.00 0.01 0.00 0.00 0.00 0.03 0.01 0.02 0.03 0.02 0.04 0.05 0.30 0.09 0.14 0.12 0.34 0.14 0.17 0.27 0.35 0.50 0.34 0.31 0.24 0.12 0.08 0.04 0.03 0.01 0.01 0.00 0.01 0.02 0.03 0.01 0.01 0.03 0.07 0.06 0.06 0.09 0.10 0.14 0.13 0.16 0.12 0.05 0.12 0.27 0.11 0.05 0.07 0.07 0.07 0.05 0.02 0.20 0.19 0.12 0.14 0.11 0.09 0.04 0.04 0.03
0.07 0.04 0.02 0.01 0.01 0.03 0.00 0.00 0.00 0.00 0.00 0.00 0.00 0.00 0.00 0.00 0.02 0.03 0.02 0.00 0.03 0.02 0.00 0.02 0.46 0.05 0.02 0.02 0.01 0.04 0.10 0.04 0.02 0.20 0.12 0.19 0.20 0.13 0.40 0.43 0.68 0.48 0.42 0.21 0.20 0.15 0.09 0.05 0.02 0.03 0.01 0.01 0.00 0.01 0.01 0.02 0.02 0.03 0.04 0.02 0.02 0.05 0.06 0.04 0.12 0.11 0.07 0.11 0.20 0.11 0.09 0.18 0.13 0.13 0.14 0.16 0.09 0.05 0.06 0.23 0.16 0.10 0.14 0.07 0.08 0.09 0.09
0.05 0.04 0.02 0.01 0.01 0.00 0.00 0.00 0.00 0.00 0.00 0.00 0.00 0.00 0.00 0.04 0.01 0.01 0.02 0.02 0.07 0.02 0.13 0.09 0.13 0.14 0.05 0.07 0.07 0.05 0.02 0.02 0.02 0.02 0.06 0.21 0.32 0.44 0.60 0.40 0.39 0.26 0.18 0.12 0.10 0.06 0.03 0.04 0.03 0.01 0.01 0.01 0.01 0.01 0.02 0.03 0.04 0.02 0.05 0.14 0.12 0.03 0.03 0.01 0.03 0.06 0.10 0.13 0.14 0.19 0.19 0.37 0.29 0.21 0.19 0.11 0.07 0.13 0.08 0.10 0.05 0.09 0.07 0.10 0.10 0.12 0.07